Overview Statistics Trail Chart Weather Telemetry Raw packets
 

This is the latest recevied weather packets stored in our database for station/object NB9X. If no packets are shown the sender has not sent any weather packets the latest 10 day(s).

<< 63 64 65 66 67 68 69 >>
Time Temp. Humidity Pressure Rain* Wind** Luminosity Snow
1788210568 33.89° C 100% 1014.4 hPa 0 mm - - -
1788210268 33.89° C 100% 1014.3 hPa 0 mm - - -
1788209968 33.33° C 100% 1014.2 hPa 0 mm - - -
1788209668 33.33° C 100% 1014.3 hPa 0 mm - - -
1788209368 33.89° C 100% 1014.5 hPa 0 mm - - -
1788209068 32.78° C 100% 1014.5 hPa 0 mm - - -
1788208768 33.33° C 100% 1014.6 hPa 0 mm - - -
1788208468 32.78° C 100% 1014.6 hPa 0 mm - - -
1788208168 32.22° C 100% 1014.6 hPa 0 mm - - -
1788207868 32.78° C 100% 1014.6 hPa 0 mm - - -
1788207568 32.78° C 100% 1014.5 hPa 0 mm - - -
1788207268 32.22° C 100% 1014.4 hPa 0 mm - - -
1788206968 33.33° C 100% 1014.5 hPa 0 mm - - -
1788206668 32.22° C 100% 1014.6 hPa 0 mm - - -
1788206368 33.33° C 100% 1014.6 hPa 0 mm - - -
1788206068 31.11° C 100% 1014.7 hPa 0 mm - - -
1788205785 33.33° C 100% 1014.6 hPa 0 mm - - -
1788205468 32.78° C 100% 1014.7 hPa 0 mm - - -
1788205168 31.67° C 100% 1014.6 hPa 0 mm - - -
1788204868 32.78° C 100% 1014.6 hPa 0 mm - - -
1788204568 32.78° C 100% 1014.6 hPa 0 mm - - -
1788204268 32.78° C 100% 1014.6 hPa 0 mm - - -
1788203973 30.56° C 100% 1014.6 hPa 0 mm - - -
1788203668 30° C 100% 1014.7 hPa 0 mm - - -
1788203368 30.56° C 100% 1014.7 hPa 0 mm - - -

* Rain latest hour (hover to see other rain measurements)
** Current wind speed in m/s (hover to see current wind gust speed)